Location: Roland
(31.1349°N, 85.4372°W)
Time: 22:25:05
(UTC+00:00)

Tiros 1 - Pass Details

Date: 20 April 2021
Orbit: 630 x 664 km, 48.4° (Epoch: 05 May)

Event Time Altitude Azimuth Distance (km) Brightness Sun altitude
Rises 19:43:59 0° 321° (NW) 2,916 10.6 55.6°
Reaches altitude 10° 19:46:51 10° 338° (NNW) 2,006 9.8 55.1°
Maximum altitude 19:50:16 20° 26° (NNE) 1,447 8.9 54.4°
Drops below altitude 10° 19:53:42 10° 74° (ENE) 2,005 9.4 53.7°
Sets 19:56:33 0° 92° (E) 2,914 10.2 53.2°
